Location: Newark
(45.4422°N, 16.2769°E)
Time: 19:13:16
(UTC+00:00)

Courier 1B - Pass Details

Date: 12 December 2019
Orbit: 962 x 1209 km, 28.3° (Epoch: 28 January)

Event Time Altitude Azimuth Distance (km) Brightness Sun altitude
Rises 18:13:06 0° 203° (SSW) 3,823 10.9 -30.8°
Enters shadow 18:18:07 - 172° (S) 3,004 10.0 -31.7°
Reaches altitude 10° 18:19:06 10° 164° (SSE) 2,952 - -31.9°
Maximum altitude 18:20:04 10° 156° (SSE) 2,944 - -32.0°
Drops below altitude 10° 18:21:03 10° 148° (SSE) 2,978 - -32.2°
Sets 18:27:19 0° 110° (ESE) 4,016 - -33.3°
